Year,Month,Day,Hour,Minute,Value (Times are PST for temperature in C)
2018,01,21,00,00,3.30
2018,01,21,00,01,3.30
2018,01,21,00,02,3.40
2018,01,21,00,03,3.40
2018,01,21,00,04,3.40
2018,01,21,00,05,3.40
2018,01,21,00,06,3.40
2018,01,21,00,07,3.40
2018,01,21,00,08,3.40
2018,01,21,00,09,3.40
2018,01,21,00,10,3.40
2018,01,21,00,11,3.40
2018,01,21,00,12,3.40
2018,01,21,00,13,3.40
2018,01,21,00,14,3.40
2018,01,21,00,15,3.40
2018,01,21,00,16,3.50
2018,01,21,00,17,3.50
2018,01,21,00,18,3.50
2018,01,21,00,19,3.50
2018,01,21,00,20,3.50
2018,01,21,00,21,3.40
2018,01,21,00,22,3.40
2018,01,21,00,23,3.40
2018,01,21,00,24,3.40
2018,01,21,00,25,3.40
2018,01,21,00,26,3.40
2018,01,21,00,27,3.40
2018,01,21,00,28,3.40
2018,01,21,00,29,3.40
2018,01,21,00,30,3.40
2018,01,21,00,31,3.40
2018,01,21,00,32,3.40
2018,01,21,00,33,3.40
2018,01,21,00,34,3.30
2018,01,21,00,35,3.30
2018,01,21,00,36,3.30
2018,01,21,00,37,3.30
2018,01,21,00,38,3.20
2018,01,21,00,39,3.20
2018,01,21,00,40,3.20
2018,01,21,00,41,3.20
2018,01,21,00,42,3.20
2018,01,21,00,43,3.20
2018,01,21,00,44,3.20
2018,01,21,00,45,3.20
2018,01,21,00,46,3.20
2018,01,21,00,47,3.20
2018,01,21,00,48,3.10
2018,01,21,00,49,3.10
2018,01,21,00,50,3.10
2018,01,21,00,51,3.10
2018,01,21,00,52,3.10
2018,01,21,00,53,3.10
2018,01,21,00,54,3.10
2018,01,21,00,55,3.10
2018,01,21,00,56,3.10
2018,01,21,00,57,3.10
2018,01,21,00,58,3.20
2018,01,21,00,59,3.20
2018,01,21,01,00,3.20
2018,01,21,01,01,3.20
2018,01,21,01,02,3.10
2018,01,21,01,03,3.20
2018,01,21,01,04,3.20
2018,01,21,01,05,3.20
2018,01,21,01,06,3.20
2018,01,21,01,07,3.20
2018,01,21,01,08,3.20
2018,01,21,01,09,3.20
2018,01,21,01,10,3.20
2018,01,21,01,11,3.30
2018,01,21,01,12,3.30
2018,01,21,01,13,3.30
2018,01,21,01,14,3.30
2018,01,21,01,15,3.30
2018,01,21,01,16,3.30
2018,01,21,01,17,3.30
2018,01,21,01,18,3.30
2018,01,21,01,19,3.30
2018,01,21,01,20,3.30
2018,01,21,01,21,3.30
2018,01,21,01,22,3.30
2018,01,21,01,23,3.30
2018,01,21,01,24,3.30
2018,01,21,01,25,3.40
2018,01,21,01,26,3.40
2018,01,21,01,27,3.40
2018,01,21,01,28,3.40
2018,01,21,01,29,3.40
2018,01,21,01,30,3.40
2018,01,21,01,31,3.40
2018,01,21,01,32,3.40
2018,01,21,01,33,3.40
2018,01,21,01,34,3.40
2018,01,21,01,35,3.50
2018,01,21,01,36,3.50
2018,01,21,01,37,3.50
2018,01,21,01,38,3.50
2018,01,21,01,39,3.60
2018,01,21,01,40,3.60
2018,01,21,01,41,3.60
2018,01,21,01,42,3.70
2018,01,21,01,43,3.70
2018,01,21,01,44,3.70
2018,01,21,01,45,3.70
2018,01,21,01,46,3.70
2018,01,21,01,47,3.70
2018,01,21,01,48,3.70
2018,01,21,01,49,3.70
2018,01,21,01,50,3.70
2018,01,21,01,51,3.70
2018,01,21,01,52,3.70
2018,01,21,01,53,3.70
2018,01,21,01,54,3.80
2018,01,21,01,55,3.80
2018,01,21,01,56,3.80
2018,01,21,01,57,3.80
2018,01,21,01,58,3.80
2018,01,21,01,59,3.80
2018,01,21,02,00,3.80
2018,01,21,02,01,3.80
2018,01,21,02,02,3.80
2018,01,21,02,03,3.80
2018,01,21,02,04,3.80
2018,01,21,02,05,3.80
2018,01,21,02,06,3.80
2018,01,21,02,07,3.80
2018,01,21,02,08,3.80
2018,01,21,02,09,3.90
2018,01,21,02,10,3.90
2018,01,21,02,11,4.00
2018,01,21,02,12,4.00
2018,01,21,02,13,4.00
2018,01,21,02,14,4.00
2018,01,21,02,15,4.10
2018,01,21,02,16,4.10
2018,01,21,02,17,4.10
2018,01,21,02,18,4.10
2018,01,21,02,19,4.10
2018,01,21,02,20,4.10
2018,01,21,02,21,4.10
2018,01,21,02,22,4.10
2018,01,21,02,23,4.10
2018,01,21,02,24,4.10
2018,01,21,02,25,4.00
2018,01,21,02,26,4.00
2018,01,21,02,27,4.00
2018,01,21,02,28,4.00
2018,01,21,02,29,4.00
2018,01,21,02,30,4.10
2018,01,21,02,31,4.10
2018,01,21,02,32,4.10
2018,01,21,02,33,4.10
2018,01,21,02,34,4.20
2018,01,21,02,35,4.20
2018,01,21,02,36,4.20
2018,01,21,02,37,4.30
2018,01,21,02,38,4.30
2018,01,21,02,39,4.30
2018,01,21,02,40,4.30
2018,01,21,02,41,4.30
2018,01,21,02,42,4.40
2018,01,21,02,43,4.40
2018,01,21,02,44,4.50
2018,01,21,02,45,4.50
2018,01,21,02,46,4.60
2018,01,21,02,47,4.60
2018,01,21,02,48,4.60
2018,01,21,02,49,4.50
2018,01,21,02,50,4.50
2018,01,21,02,51,4.50
2018,01,21,02,52,4.40
2018,01,21,02,53,4.40
2018,01,21,02,54,4.40
2018,01,21,02,55,4.40
2018,01,21,02,56,4.50
2018,01,21,02,57,4.50
2018,01,21,02,58,4.60
2018,01,21,02,59,4.60
2018,01,21,03,00,4.70
2018,01,21,03,01,4.70
2018,01,21,03,02,4.70
2018,01,21,03,03,4.70
2018,01,21,03,04,4.70
2018,01,21,03,05,4.70
2018,01,21,03,06,4.70
2018,01,21,03,07,4.70
2018,01,21,03,08,4.70
2018,01,21,03,09,4.60
2018,01,21,03,10,4.60
2018,01,21,03,11,4.60
2018,01,21,03,12,4.60
2018,01,21,03,13,4.60
2018,01,21,03,14,4.70
2018,01,21,03,15,4.70
2018,01,21,03,16,4.70
2018,01,21,03,17,4.70
2018,01,21,03,18,4.60
2018,01,21,03,19,4.60
2018,01,21,03,20,4.60
2018,01,21,03,21,4.60
2018,01,21,03,22,4.70
2018,01,21,03,23,4.70
2018,01,21,03,24,4.70
2018,01,21,03,25,4.70
2018,01,21,03,26,4.70
2018,01,21,03,27,4.70
2018,01,21,03,28,4.80
2018,01,21,03,29,4.80
2018,01,21,03,30,4.80
2018,01,21,03,31,4.80
2018,01,21,03,32,4.80
2018,01,21,03,33,4.80
2018,01,21,03,34,4.80
2018,01,21,03,35,4.80
2018,01,21,03,36,4.80
2018,01,21,03,37,4.80
2018,01,21,03,38,4.80
2018,01,21,03,39,4.80
2018,01,21,03,40,4.70
2018,01,21,03,41,4.70
2018,01,21,03,42,4.70
2018,01,21,03,43,4.70
2018,01,21,03,44,4.70
2018,01,21,03,45,4.70
2018,01,21,03,46,4.70
2018,01,21,03,47,4.70
2018,01,21,03,48,4.70
2018,01,21,03,49,4.60
2018,01,21,03,50,4.60
2018,01,21,03,51,4.60
2018,01,21,03,52,4.60
2018,01,21,03,53,4.60
2018,01,21,03,54,4.60
2018,01,21,03,55,4.60
2018,01,21,03,56,4.60
2018,01,21,03,57,4.50
2018,01,21,03,58,4.50
2018,01,21,03,59,4.50
2018,01,21,04,00,4.50
2018,01,21,04,01,4.50
2018,01,21,04,02,4.60
2018,01,21,04,03,4.60
2018,01,21,04,04,4.60
2018,01,21,04,05,4.70
2018,01,21,04,06,4.70
2018,01,21,04,07,4.70
2018,01,21,04,08,4.70
2018,01,21,04,09,4.70
2018,01,21,04,10,4.70
2018,01,21,04,11,4.70
2018,01,21,04,12,4.70
2018,01,21,04,13,4.70
2018,01,21,04,14,4.70
2018,01,21,04,15,4.70
2018,01,21,04,16,4.70
2018,01,21,04,17,4.80
2018,01,21,04,18,4.80
2018,01,21,04,19,4.80
2018,01,21,04,20,4.80
2018,01,21,04,21,4.80
2018,01,21,04,22,4.80
2018,01,21,04,23,4.90
2018,01,21,04,24,4.90
2018,01,21,04,25,4.90
2018,01,21,04,26,4.90
2018,01,21,04,27,4.90
2018,01,21,04,28,5.00
2018,01,21,04,29,5.00
2018,01,21,04,30,5.10
2018,01,21,04,31,5.20
2018,01,21,04,32,5.30
2018,01,21,04,33,5.30
2018,01,21,04,34,5.40
2018,01,21,04,35,5.40
2018,01,21,04,36,5.50
2018,01,21,04,37,5.60
2018,01,21,04,38,5.60
2018,01,21,04,39,5.60
2018,01,21,04,40,5.70
2018,01,21,04,41,5.70
2018,01,21,04,42,5.80
2018,01,21,04,43,5.80
2018,01,21,04,44,5.80
2018,01,21,04,45,5.80
2018,01,21,04,46,5.80
2018,01,21,04,47,5.90
2018,01,21,04,48,5.90
2018,01,21,04,49,5.90
2018,01,21,04,50,5.90
2018,01,21,04,51,5.90
2018,01,21,04,52,5.90
2018,01,21,04,53,5.90
2018,01,21,04,54,5.90
2018,01,21,04,55,6.00
2018,01,21,04,56,6.00
2018,01,21,04,57,6.00
2018,01,21,04,58,6.00
2018,01,21,04,59,6.10
2018,01,21,05,00,6.10
2018,01,21,05,01,6.10
2018,01,21,05,02,6.10
2018,01,21,05,03,6.10
2018,01,21,05,04,6.10
2018,01,21,05,05,6.00
2018,01,21,05,06,6.00
2018,01,21,05,07,6.10
2018,01,21,05,08,6.10
2018,01,21,05,09,6.10
2018,01,21,05,10,6.10
2018,01,21,05,11,6.10
2018,01,21,05,12,6.10
2018,01,21,05,13,6.10
2018,01,21,05,14,6.10
2018,01,21,05,15,6.10
2018,01,21,05,16,6.10
2018,01,21,05,17,6.10
2018,01,21,05,18,6.10
2018,01,21,05,19,6.10
2018,01,21,05,20,6.10
2018,01,21,05,21,6.10
2018,01,21,05,22,6.00
2018,01,21,05,23,6.00
2018,01,21,05,24,5.90
2018,01,21,05,25,5.90
2018,01,21,05,26,5.90
2018,01,21,05,27,5.90
2018,01,21,05,28,5.80
2018,01,21,05,29,5.80
2018,01,21,05,30,5.80
2018,01,21,05,31,5.70
2018,01,21,05,32,5.70
2018,01,21,05,33,5.70
2018,01,21,05,34,5.70
2018,01,21,05,35,5.70
2018,01,21,05,36,5.60
2018,01,21,05,37,5.60
2018,01,21,05,38,5.60
2018,01,21,05,39,5.50
2018,01,21,05,40,5.50
2018,01,21,05,41,5.40
2018,01,21,05,42,5.40
2018,01,21,05,43,5.40
2018,01,21,05,44,5.30
2018,01,21,05,45,5.30
2018,01,21,05,46,5.30
2018,01,21,05,47,5.20
2018,01,21,05,48,5.20
2018,01,21,05,49,5.20
2018,01,21,12,36,6.10
2018,01,21,12,37,6.00
2018,01,21,12,38,6.00
2018,01,21,12,39,5.90
2018,01,21,12,40,5.90
2018,01,21,12,41,5.90
2018,01,21,12,42,5.90
2018,01,21,12,43,5.90
2018,01,21,12,44,5.90
2018,01,21,12,45,5.80
2018,01,21,12,46,5.80
2018,01,21,12,47,5.70
2018,01,21,12,48,5.60
2018,01,21,12,49,5.60
2018,01,21,12,50,5.50
2018,01,21,12,51,5.50
2018,01,21,12,52,5.40
2018,01,21,12,53,5.30
2018,01,21,12,54,5.30
2018,01,21,12,55,5.30
2018,01,21,12,56,5.20
2018,01,21,12,57,5.20
2018,01,21,12,58,5.20
2018,01,21,12,59,5.20
2018,01,21,13,00,5.20
2018,01,21,13,01,5.20
2018,01,21,13,02,5.30
2018,01,21,13,03,5.30
2018,01,21,13,04,5.30
2018,01,21,13,05,5.30
2018,01,21,13,06,5.30
2018,01,21,13,07,5.30
2018,01,21,13,08,5.30
2018,01,21,13,09,5.30
2018,01,21,13,10,5.30
2018,01,21,13,11,5.30
2018,01,21,13,12,5.30
2018,01,21,13,13,5.30
2018,01,21,13,14,5.30
2018,01,21,13,15,5.30
2018,01,21,13,16,5.30
2018,01,21,13,17,5.30
2018,01,21,13,18,5.40
2018,01,21,13,19,5.40
2018,01,21,13,20,5.40
2018,01,21,13,21,5.40
2018,01,21,13,22,5.40
2018,01,21,13,23,5.40
2018,01,21,13,24,5.40
2018,01,21,13,25,5.40
2018,01,21,13,26,5.40
2018,01,21,13,27,5.40
2018,01,21,13,28,5.40
2018,01,21,13,29,5.40
2018,01,21,13,30,5.40
2018,01,21,13,31,5.40
2018,01,21,13,32,5.40
2018,01,21,13,33,5.40
2018,01,21,13,34,5.40
2018,01,21,13,35,5.50
2018,01,21,13,36,5.40
2018,01,21,13,37,5.50
2018,01,21,13,38,5.50
2018,01,21,13,39,5.50
2018,01,21,13,40,5.50
2018,01,21,13,41,5.40
2018,01,21,13,42,5.50
2018,01,21,13,43,5.50
2018,01,21,13,44,5.50
2018,01,21,13,45,5.50
2018,01,21,13,46,5.50
2018,01,21,13,47,5.50
2018,01,21,13,48,5.50
2018,01,21,13,49,5.50
2018,01,21,13,50,5.50
2018,01,21,13,51,5.40
2018,01,21,13,52,5.40
2018,01,21,13,53,5.40
2018,01,21,13,54,5.40
2018,01,21,13,55,5.40
2018,01,21,13,56,5.40
2018,01,21,13,57,5.40
2018,01,21,13,58,5.50
2018,01,21,13,59,5.50
2018,01,21,14,00,5.50
2018,01,21,14,01,5.50
2018,01,21,14,02,5.50
2018,01,21,14,03,5.60
2018,01,21,14,04,5.60
2018,01,21,14,05,5.60
2018,01,21,14,06,5.60
2018,01,21,14,07,5.60
2018,01,21,14,08,5.60
2018,01,21,14,09,5.60
2018,01,21,14,10,5.60
2018,01,21,14,11,5.60
2018,01,21,14,12,5.60
2018,01,21,14,13,5.60
2018,01,21,14,14,5.60
2018,01,21,14,15,5.60
2018,01,21,14,16,5.60
2018,01,21,14,17,5.60
2018,01,21,14,18,5.60
2018,01,21,14,19,5.60
2018,01,21,14,20,5.60
2018,01,21,14,21,5.50
2018,01,21,14,22,5.50
2018,01,21,14,23,5.50
2018,01,21,14,24,5.50
2018,01,21,14,25,5.50
2018,01,21,14,26,5.50
2018,01,21,14,27,5.50
2018,01,21,14,28,5.50
2018,01,21,14,29,5.50
2018,01,21,14,30,5.50
2018,01,21,14,31,5.50
2018,01,21,14,32,5.50
2018,01,21,14,33,5.50
2018,01,21,14,34,5.60
2018,01,21,14,35,5.60
2018,01,21,14,36,5.60
2018,01,21,14,37,5.70
2018,01,21,14,38,5.70
2018,01,21,14,39,5.70
2018,01,21,14,40,5.70
2018,01,21,14,41,5.70
2018,01,21,14,42,5.70
2018,01,21,14,43,5.70
2018,01,21,14,44,5.70
2018,01,21,14,45,5.70
2018,01,21,14,46,5.70
2018,01,21,14,47,5.70
2018,01,21,14,48,5.70
2018,01,21,14,49,5.70
2018,01,21,14,50,5.60
2018,01,21,14,51,5.60
2018,01,21,14,52,5.60
2018,01,21,14,53,5.60
2018,01,21,14,54,5.60
2018,01,21,14,55,5.60
2018,01,21,14,56,5.60
2018,01,21,14,57,5.60
2018,01,21,14,58,5.60
2018,01,21,14,59,5.60
2018,01,21,15,00,5.60
2018,01,21,15,01,5.60
2018,01,21,15,02,5.60
2018,01,21,15,03,5.50
2018,01,21,15,04,5.50
2018,01,21,15,05,5.40
2018,01,21,15,06,5.40
2018,01,21,15,07,5.40
2018,01,21,15,08,5.40
2018,01,21,15,09,5.40
2018,01,21,15,10,5.40
2018,01,21,15,11,5.40
2018,01,21,15,12,5.40
2018,01,21,15,13,5.30
2018,01,21,15,14,5.30
2018,01,21,15,15,5.30
2018,01,21,15,16,5.30
2018,01,21,15,17,5.30
2018,01,21,15,18,5.30
2018,01,21,15,19,5.40
2018,01,21,15,20,5.40
2018,01,21,15,21,5.40
2018,01,21,15,22,5.40
2018,01,21,15,23,5.40
2018,01,21,15,24,5.40
2018,01,21,15,25,5.40
2018,01,21,15,26,5.40
2018,01,21,15,27,5.40
2018,01,21,15,28,5.40
2018,01,21,15,29,5.40
2018,01,21,15,30,5.40
2018,01,21,15,31,5.40
2018,01,21,15,32,5.30
2018,01,21,15,33,5.30
2018,01,21,15,34,5.30
2018,01,21,15,35,5.30
2018,01,21,15,36,5.30
2018,01,21,15,37,5.30
2018,01,21,15,38,5.30
2018,01,21,15,39,5.30
2018,01,21,15,40,5.30
2018,01,21,15,41,5.20
2018,01,21,15,42,5.20
2018,01,21,15,43,5.20
2018,01,21,15,44,5.20
2018,01,21,15,45,5.20
2018,01,21,15,46,5.20
2018,01,21,15,47,5.10
2018,01,21,15,48,5.10
2018,01,21,15,49,5.10
2018,01,21,15,50,5.10
2018,01,21,15,51,5.10
2018,01,21,15,52,5.10
2018,01,21,15,53,5.10
2018,01,21,15,54,5.10
2018,01,21,15,55,5.10
2018,01,21,15,56,5.00
2018,01,21,15,57,5.00
2018,01,21,15,58,5.00
2018,01,21,15,59,5.00
2018,01,21,16,00,5.00
2018,01,21,16,01,5.00
2018,01,21,16,02,4.90
2018,01,21,16,03,4.90
2018,01,21,16,04,4.90
2018,01,21,16,05,4.90
2018,01,21,16,06,4.90
2018,01,21,16,07,4.90
2018,01,21,16,08,4.80
2018,01,21,16,09,4.80
2018,01,21,16,10,4.80
2018,01,21,16,11,4.80
2018,01,21,16,12,4.80
2018,01,21,16,13,4.80
2018,01,21,16,14,4.70
2018,01,21,16,15,4.70
2018,01,21,16,16,4.70
2018,01,21,16,17,4.70
2018,01,21,16,18,4.70
2018,01,21,16,19,4.70
2018,01,21,16,20,4.70
2018,01,21,16,21,4.70
2018,01,21,16,22,4.70
2018,01,21,16,23,4.70
2018,01,21,16,24,4.70
2018,01,21,16,25,4.70
2018,01,21,16,26,4.70
2018,01,21,16,27,4.70
2018,01,21,16,28,4.70
2018,01,21,16,29,4.70
2018,01,21,16,30,4.70
2018,01,21,16,31,4.70
2018,01,21,16,32,4.70
2018,01,21,16,33,4.70
2018,01,21,16,34,4.70
2018,01,21,16,35,4.70
2018,01,21,16,36,4.70
2018,01,21,16,37,4.70
2018,01,21,16,38,4.70
2018,01,21,16,39,4.70
2018,01,21,16,40,4.70
2018,01,21,16,41,4.70
2018,01,21,16,42,4.70
2018,01,21,16,43,4.70
2018,01,21,16,44,4.70
2018,01,21,16,45,4.80
2018,01,21,16,46,4.80
2018,01,21,16,47,4.70
2018,01,21,16,48,4.70
2018,01,21,16,49,4.70
2018,01,21,16,50,4.70
2018,01,21,16,51,4.70
2018,01,21,16,52,4.70
2018,01,21,16,53,4.70
2018,01,21,16,54,4.70
2018,01,21,16,55,4.70
2018,01,21,16,56,4.70
2018,01,21,16,57,4.70
2018,01,21,16,58,4.70
2018,01,21,16,59,4.70
2018,01,21,17,00,4.70
2018,01,21,17,01,4.70
2018,01,21,17,02,4.70
2018,01,21,17,03,4.70
2018,01,21,17,04,4.70
2018,01,21,17,05,4.70
2018,01,21,17,06,4.70
2018,01,21,17,07,4.70
2018,01,21,17,08,4.70
2018,01,21,17,09,4.70
2018,01,21,17,10,4.70
2018,01,21,17,11,4.70
2018,01,21,17,12,4.70
2018,01,21,17,13,4.70
2018,01,21,17,14,4.70
2018,01,21,17,15,4.70
2018,01,21,17,16,4.70
2018,01,21,17,17,4.70
2018,01,21,17,18,4.70
2018,01,21,17,19,4.70
2018,01,21,17,20,4.70
2018,01,21,17,21,4.70
2018,01,21,17,22,4.60
2018,01,21,17,23,4.60
2018,01,21,17,24,4.60
2018,01,21,17,25,4.60
2018,01,21,17,26,4.60
2018,01,21,17,27,4.60
2018,01,21,17,28,4.60
2018,01,21,17,29,4.50
2018,01,21,17,30,4.50
2018,01,21,17,31,4.50
2018,01,21,17,32,4.50
2018,01,21,17,33,4.50
2018,01,21,17,34,4.50
2018,01,21,17,35,4.50
2018,01,21,17,36,4.50
2018,01,21,17,37,4.50
2018,01,21,17,38,4.60
2018,01,21,17,39,4.60
2018,01,21,17,40,4.60
2018,01,21,17,41,4.50
2018,01,21,17,42,4.60
2018,01,21,17,43,4.50
2018,01,21,17,44,4.50
2018,01,21,17,45,4.50
2018,01,21,17,46,4.50
2018,01,21,17,47,4.50
2018,01,21,17,48,4.50
2018,01,21,17,49,4.50
2018,01,21,17,50,4.50
2018,01,21,17,51,4.50
2018,01,21,17,52,4.50
2018,01,21,17,53,4.50
2018,01,21,17,54,4.50
2018,01,21,17,55,4.50
2018,01,21,17,56,4.50
2018,01,21,17,57,4.50
2018,01,21,17,58,4.50
2018,01,21,17,59,4.50
2018,01,21,18,00,4.50
2018,01,21,18,01,4.50
2018,01,21,18,02,4.50
2018,01,21,18,03,4.60
2018,01,21,18,04,4.60
2018,01,21,18,05,4.60
2018,01,21,18,06,4.60
2018,01,21,18,07,4.60
2018,01,21,18,08,4.60
2018,01,21,18,09,4.60
2018,01,21,18,10,4.60
2018,01,21,18,11,4.60
2018,01,21,18,12,4.60
2018,01,21,18,13,4.70
2018,01,21,18,14,4.70
2018,01,21,18,15,4.70
2018,01,21,18,16,4.70
2018,01,21,18,17,4.70
2018,01,21,18,18,4.70
2018,01,21,18,19,4.70
2018,01,21,18,20,4.70
2018,01,21,18,21,4.70
2018,01,21,18,22,4.70
2018,01,21,18,23,4.70
2018,01,21,18,24,4.70
2018,01,21,18,25,4.70
2018,01,21,18,26,4.70
2018,01,21,18,27,4.70
2018,01,21,18,28,4.70
2018,01,21,18,29,4.70
2018,01,21,18,30,4.70
2018,01,21,18,31,4.70
2018,01,21,18,32,4.70
2018,01,21,18,33,4.60
2018,01,21,18,34,4.60
2018,01,21,18,35,4.60
2018,01,21,18,36,4.60
2018,01,21,18,37,4.60
2018,01,21,18,38,4.60
2018,01,21,18,39,4.50
2018,01,21,18,40,4.50
2018,01,21,18,41,4.50
2018,01,21,18,42,4.50
2018,01,21,18,43,4.40
2018,01,21,18,44,4.40
2018,01,21,18,45,4.40
2018,01,21,18,46,4.40
2018,01,21,18,47,4.40
2018,01,21,18,48,4.40
2018,01,21,18,49,4.40
2018,01,21,18,50,4.40
2018,01,21,18,51,4.30
2018,01,21,18,52,4.40
2018,01,21,18,53,4.40
2018,01,21,18,54,4.40
2018,01,21,18,55,4.40
2018,01,21,18,56,4.40
2018,01,21,18,57,4.40
2018,01,21,18,58,4.40
2018,01,21,18,59,4.40
2018,01,21,19,00,4.40
2018,01,21,19,01,4.40
2018,01,21,19,02,4.40
2018,01,21,19,03,4.40
2018,01,21,19,04,4.40
2018,01,21,19,05,4.40
2018,01,21,19,06,4.40
2018,01,21,19,07,4.40
2018,01,21,19,08,4.40
2018,01,21,19,09,4.30
2018,01,21,19,10,4.30
2018,01,21,19,11,4.30
2018,01,21,19,12,4.30
2018,01,21,19,13,4.30
2018,01,21,19,14,4.30
2018,01,21,19,15,4.30
2018,01,21,19,16,4.30
2018,01,21,19,17,4.30
2018,01,21,19,18,4.30
2018,01,21,19,19,4.30
2018,01,21,19,20,4.30
2018,01,21,19,21,4.30
2018,01,21,19,22,4.30
2018,01,21,19,23,4.30
2018,01,21,19,24,4.30
2018,01,21,19,25,4.20
2018,01,21,19,26,4.20
2018,01,21,19,27,4.20
2018,01,21,19,28,4.20
2018,01,21,19,29,4.20
2018,01,21,19,30,4.20
2018,01,21,19,31,4.20
2018,01,21,19,32,4.20
2018,01,21,19,33,4.20
2018,01,21,19,34,4.20
2018,01,21,19,35,4.30
2018,01,21,19,36,4.30
2018,01,21,19,37,4.20
2018,01,21,19,38,4.20
2018,01,21,19,39,4.20
2018,01,21,19,40,4.20
2018,01,21,19,41,4.20
2018,01,21,19,42,4.20
2018,01,21,19,43,4.20
2018,01,21,19,44,4.20
2018,01,21,19,45,4.20
2018,01,21,19,46,4.20
2018,01,21,19,47,4.20
2018,01,21,19,48,4.20
2018,01,21,19,49,4.20
2018,01,21,19,50,4.20
2018,01,21,19,51,4.20
2018,01,21,19,52,4.20
2018,01,21,19,53,4.20
2018,01,21,19,54,4.20
2018,01,21,19,55,4.20
2018,01,21,19,56,4.20
2018,01,21,19,57,4.20
2018,01,21,19,58,4.20
2018,01,21,19,59,4.20
2018,01,21,20,00,4.20
2018,01,21,20,01,4.20
2018,01,21,20,02,4.20
2018,01,21,20,03,4.20
2018,01,21,20,04,4.20
2018,01,21,20,05,4.20
2018,01,21,20,06,4.20
2018,01,21,20,07,4.30
2018,01,21,20,08,4.30
2018,01,21,20,09,4.30
2018,01,21,20,10,4.30
2018,01,21,20,11,4.30
2018,01,21,20,12,4.30
2018,01,21,20,13,4.30
2018,01,21,20,14,4.30
2018,01,21,20,15,4.30
2018,01,21,20,16,4.30
2018,01,21,20,17,4.30
2018,01,21,20,18,4.30
2018,01,21,20,19,4.30
2018,01,21,20,20,4.40
2018,01,21,20,21,4.40
2018,01,21,20,22,4.40
2018,01,21,20,23,4.40
2018,01,21,20,24,4.40
2018,01,21,20,25,4.40
2018,01,21,20,26,4.40
2018,01,21,20,27,4.30
2018,01,21,20,28,4.30
2018,01,21,20,29,4.30
2018,01,21,20,30,4.30
2018,01,21,20,31,4.30
2018,01,21,20,32,4.30
2018,01,21,20,33,4.30
2018,01,21,20,34,4.30
2018,01,21,20,35,4.30
2018,01,21,20,36,4.20
2018,01,21,20,37,4.20
2018,01,21,20,38,4.20
2018,01,21,20,39,4.20
2018,01,21,20,40,4.20
2018,01,21,20,41,4.10
2018,01,21,20,42,4.10
2018,01,21,20,43,4.10
2018,01,21,20,44,4.10
2018,01,21,20,45,4.00
2018,01,21,20,46,4.00
2018,01,21,20,47,4.00
2018,01,21,20,48,4.00
2018,01,21,20,49,4.00
2018,01,21,20,50,4.00
2018,01,21,20,51,4.00
2018,01,21,20,52,3.90
2018,01,21,20,53,4.00
2018,01,21,20,54,4.00
2018,01,21,20,55,4.00
2018,01,21,20,56,4.10
2018,01,21,20,57,4.10
2018,01,21,20,58,4.10
2018,01,21,20,59,4.10
2018,01,21,21,00,4.10
2018,01,21,21,01,4.10
2018,01,21,21,02,4.10
2018,01,21,21,03,4.10
2018,01,21,21,04,4.10
2018,01,21,21,05,4.10
2018,01,21,21,06,4.10
2018,01,21,21,07,4.10
2018,01,21,21,08,4.10
2018,01,21,21,09,4.10
2018,01,21,21,10,4.10
2018,01,21,21,11,4.10
2018,01,21,21,12,4.10
2018,01,21,21,13,4.10
2018,01,21,21,14,4.10
2018,01,21,21,15,4.10
2018,01,21,21,16,4.10
2018,01,21,21,17,4.10
2018,01,21,21,18,4.10
2018,01,21,21,19,4.10
2018,01,21,21,20,4.10
2018,01,21,21,21,4.10
2018,01,21,21,22,4.10
2018,01,21,21,23,4.20
2018,01,21,21,24,4.20
2018,01,21,21,25,4.20
2018,01,21,21,26,4.20
2018,01,21,21,27,4.20
2018,01,21,21,28,4.20
2018,01,21,21,29,4.20
2018,01,21,21,30,4.20
2018,01,21,21,31,4.20
2018,01,21,21,32,4.20
2018,01,21,21,33,4.20
2018,01,21,21,34,4.20
2018,01,21,21,35,4.10
2018,01,21,21,36,4.10
2018,01,21,21,37,4.10
2018,01,21,21,38,4.10
2018,01,21,21,39,4.10
2018,01,21,21,40,4.10
2018,01,21,21,41,4.00
2018,01,21,21,42,4.00
2018,01,21,21,43,4.00
2018,01,21,21,44,4.00
2018,01,21,21,45,3.90
2018,01,21,21,46,3.90
2018,01,21,21,47,3.90
2018,01,21,21,48,3.80
2018,01,21,21,49,3.80
2018,01,21,21,50,3.80
2018,01,21,21,51,3.80
2018,01,21,21,52,3.80
2018,01,21,21,53,3.80
2018,01,21,21,54,3.80
2018,01,21,21,55,3.80
2018,01,21,21,56,3.70
2018,01,21,21,57,3.70
2018,01,21,21,58,3.70
2018,01,21,21,59,3.70
2018,01,21,22,00,3.60
2018,01,21,22,01,3.60
2018,01,21,22,02,3.60
2018,01,21,22,03,3.60
2018,01,21,22,04,3.60
2018,01,21,22,05,3.60
2018,01,21,22,06,3.60
2018,01,21,22,07,3.60
2018,01,21,22,08,3.50
2018,01,21,22,09,3.50
2018,01,21,22,10,3.50
2018,01,21,22,11,3.50
2018,01,21,22,12,3.60
2018,01,21,22,13,3.60
2018,01,21,22,14,3.60
2018,01,21,22,15,3.60
2018,01,21,22,16,3.60
2018,01,21,22,17,3.60
2018,01,21,22,18,3.60
2018,01,21,22,19,3.60
2018,01,21,22,20,3.60
2018,01,21,22,21,3.70
2018,01,21,22,22,3.70
2018,01,21,22,23,3.70
2018,01,21,22,24,3.70
2018,01,21,22,25,3.70
2018,01,21,22,26,3.70
2018,01,21,22,27,3.80
2018,01,21,22,28,3.80
2018,01,21,22,29,3.80
2018,01,21,22,30,3.80
2018,01,21,22,31,3.80
2018,01,21,22,32,3.90
2018,01,21,22,33,3.90
2018,01,21,22,34,3.90
2018,01,21,22,35,3.90
2018,01,21,22,36,3.90
2018,01,21,22,37,3.90
2018,01,21,22,38,3.90
2018,01,21,22,39,3.90
2018,01,21,22,40,3.90
2018,01,21,22,41,3.90
2018,01,21,22,42,3.90
2018,01,21,22,43,3.80
2018,01,21,22,44,3.80
2018,01,21,22,45,3.80
2018,01,21,22,46,3.80
2018,01,21,22,47,3.80
2018,01,21,22,48,3.70
2018,01,21,22,49,3.70
2018,01,21,22,50,3.70
2018,01,21,22,51,3.70
2018,01,21,22,52,3.70
2018,01,21,22,53,3.70
2018,01,21,22,54,3.70
2018,01,21,22,55,3.70
2018,01,21,22,56,3.70
2018,01,21,22,57,3.70
2018,01,21,22,58,3.60
2018,01,21,22,59,3.60
2018,01,21,23,00,3.60
2018,01,21,23,01,3.60
2018,01,21,23,02,3.50
2018,01,21,23,03,3.50
2018,01,21,23,04,3.50
2018,01,21,23,05,3.50
2018,01,21,23,06,3.50
2018,01,21,23,07,3.50
2018,01,21,23,08,3.50
2018,01,21,23,09,3.60
2018,01,21,23,10,3.60
2018,01,21,23,11,3.60
2018,01,21,23,12,3.60
2018,01,21,23,13,3.60
2018,01,21,23,14,3.60
2018,01,21,23,15,3.60
2018,01,21,23,16,3.60
2018,01,21,23,17,3.60
2018,01,21,23,18,3.60
2018,01,21,23,19,3.60
2018,01,21,23,20,3.60
2018,01,21,23,21,3.60
2018,01,21,23,22,3.60
2018,01,21,23,23,3.60
2018,01,21,23,24,3.50
2018,01,21,23,25,3.50
2018,01,21,23,26,3.50
2018,01,21,23,27,3.50
2018,01,21,23,28,3.40
2018,01,21,23,29,3.40
2018,01,21,23,30,3.40
2018,01,21,23,31,3.40
2018,01,21,23,32,3.40
2018,01,21,23,33,3.40
2018,01,21,23,34,3.40
2018,01,21,23,35,3.30
2018,01,21,23,36,3.30
2018,01,21,23,37,3.30
2018,01,21,23,38,3.30
2018,01,21,23,39,3.30
2018,01,21,23,40,3.30
2018,01,21,23,41,3.30
2018,01,21,23,42,3.30
2018,01,21,23,43,3.30
2018,01,21,23,44,3.30
2018,01,21,23,45,3.30
2018,01,21,23,46,3.30
2018,01,21,23,47,3.20
2018,01,21,23,48,3.20
2018,01,21,23,49,3.20
2018,01,21,23,50,3.20
2018,01,21,23,51,3.20
2018,01,21,23,52,3.20
2018,01,21,23,53,3.20
2018,01,21,23,54,3.20
2018,01,21,23,55,3.10
2018,01,21,23,56,3.10
2018,01,21,23,57,3.10
2018,01,21,23,58,3.10
2018,01,21,23,59,3.10
